Total_Precipitation_Accumulation
0.78 0.78 0.79 0.76 0.75 0.74 0.74 0.71 0.73 0.79 0.80 0.83 0.99 1.04 1.12 1.21 1.38 1.64 1.82 1.83 1.76 1.76 1.74 1.82 1.98 2.07 2.29 2.27 2.18 2.06 1.91 1.72 1.57 1.42 1.20 0.99 1.04 1.08 1.11 1.10 1.01 0.94 0.78
0.88 0.87 0.78 0.70 0.67 0.67 0.64 0.57 0.57 0.56 0.55 0.67 0.81 0.85 0.89 0.94 1.13 1.43 1.62 1.66 1.63 1.54 1.52 1.62 1.84 2.01 2.22 2.33 2.29 2.14 2.02 1.87 1.75 1.67 1.49 1.23 1.12 1.15 1.21 1.25 1.19 1.11 1.05
0.92 0.82 0.74 0.68 0.59 0.55 0.49 0.45 0.51 0.52 0.58 0.67 0.77 0.82 0.85 0.91 0.94 1.05 1.21 1.32 1.31 1.26 1.29 1.34 1.40 1.58 1.86 2.05 2.10 2.11 2.13 2.09 2.03 1.87 1.67 1.48 1.32 1.22 1.25 1.25 1.19 1.25 1.17
1.06 0.96 0.85 0.74 0.62 0.57 0.50 0.45 0.44 0.46 0.53 0.59 0.65 0.72 0.80 0.85 0.85 0.86 0.89 0.97 0.99 1.03 1.08 1.15 1.20 1.23 1.42 1.60 1.71 1.93 2.14 2.14 2.13 2.04 1.82 1.59 1.43 1.32 1.35 1.36 1.34 1.32 1.27
1.08 1.07 0.93 0.74 0.61 0.55 0.50 0.43 0.41 0.41 0.43 0.49 0.56 0.60 0.65 0.72 0.77 0.79 0.69 0.68 0.75 0.84 0.89 0.89 0.91 0.99 1.10 1.19 1.26 1.60 1.93 2.08 2.05 2.00 1.87 1.72 1.48 1.36 1.25 1.21 1.33 1.51 1.50
0.99 0.97 0.75 0.58 0.47 0.42 0.41 0.40 0.35 0.35 0.40 0.45 0.46 0.49 0.60 0.61 0.70 0.67 0.53 0.53 0.58 0.69 0.79 0.79 0.70 0.70 0.76 0.82 0.90 1.07 1.34 1.56 1.81 1.95 1.89 1.70 1.51 1.38 1.31 1.29 1.31 1.39 1.47
0.64 0.60 0.51 0.40 0.38 0.41 0.43 0.37 0.35 0.34 0.36 0.39 0.40 0.42 0.48 0.60 0.60 0.43 0.41 0.46 0.54 0.60 0.68 0.76 0.69 0.60 0.67 0.72 0.81 0.88 0.90 0.96 1.22 1.55 1.67 1.64 1.70 1.55 1.47 1.37 1.30 1.34 1.37
0.40 0.40 0.34 0.31 0.32 0.34 0.36 0.34 0.40 0.44 0.42 0.43 0.46 0.47 0.47 0.52 0.48 0.34 0.35 0.40 0.46 0.53 0.63 0.73 0.79 0.71 0.71 0.81 0.82 0.85 0.81 0.76 0.93 0.96 1.13 1.41 1.56 1.63 1.59 1.61 1.72 1.64 1.47
0.12 0.13 0.12 0.12 0.13 0.15 0.16 0.22 0.33 0.40 0.42 0.45 0.49 0.50 0.47 0.44 0.43 0.32 0.31 0.39 0.46 0.53 0.56 0.62 0.70 0.68 0.81 0.89 0.88 1.00 0.99 0.87 0.98 1.03 1.07 1.09 1.18 1.29 1.41 1.47 1.54 1.59 1.56
0.01 0.01 0.01 0.02 0.02 0.04 0.06 0.09 0.16 0.20 0.25 0.33 0.35 0.39 0.43 0.42 0.51 0.37 0.35 0.39 0.50 0.60 0.64 0.63 0.76 0.76 0.81 0.80 0.78 0.99 1.01 0.92 0.83 0.88 0.88 0.84 0.78 0.85 1.03 1.20 1.38 1.44 1.41
0.00 0.00 0.00 0.00 0.00 0.01 0.02 0.04 0.07 0.09 0.13 0.17 0.22 0.28 0.36 0.42 0.51 0.48 0.50 0.50 0.55 0.69 0.71 0.65 0.59 0.67 0.57 0.63 0.67 0.72 0.92 0.91 0.81 0.87 0.88 0.81 0.74 0.72 0.78 0.91 1.12 1.29 1.32
0.00 0.00 0.00 0.00 0.00 0.01 0.01 0.02 0.02 0.04 0.07 0.10 0.12 0.17 0.23 0.29 0.37 0.43 0.43 0.45 0.50 0.62 0.71 0.60 0.57 0.63 0.48 0.46 0.49 0.59 0.72 0.81 0.79 0.84 0.85 0.83 0.75 0.66 0.66 0.74 0.82 0.88 0.92
0.00 0.00 0.01 0.01 0.01 0.01 0.02 0.02 0.02 0.04 0.06 0.08 0.11 0.17 0.23 0.30 0.33 0.29 0.28 0.29 0.34 0.48 0.52 0.54 0.53 0.50 0.45 0.42 0.42 0.49 0.55 0.64 0.78 0.80 0.74 0.72 0.64 0.60 0.58 0.59 0.65 0.71 0.74
0.00 0.00 0.00 0.01 0.01 0.01 0.02 0.03 0.04 0.04 0.07 0.10 0.16 0.21 0.25 0.29 0.32 0.31 0.33 0.35 0.33 0.38 0.39 0.39 0.41 0.43 0.46 0.44 0.41 0.44 0.51 0.60 0.65 0.62 0.58 0.56 0.56 0.57 0.61 0.60 0.62 0.66 0.71
0.00 0.00 0.00 0.01 0.01 0.01 0.01 0.01 0.02 0.03 0.05 0.12 0.19 0.24 0.25 0.24 0.20 0.22 0.34 0.43 0.48 0.54 0.60 0.55 0.55 0.55 0.50 0.44 0.41 0.41 0.44 0.48 0.47 0.45 0.44 0.41 0.40 0.44 0.50 0.53 0.55 0.54 0.58
0.00 0.00 0.00 0.01 0.01 0.02 0.01 0.01 0.01 0.02 0.06 0.08 0.09 0.11 0.13 0.13 0.13 0.16 0.24 0.34 0.42 0.52 0.68 0.73 0.76 0.77 0.69 0.58 0.47 0.39 0.34 0.34 0.36 0.38 0.39 0.38 0.36 0.37 0.42 0.43 0.45 0.43 0.44
0.00 0.00 0.00 0.01 0.01 0.01 0.02 0.04 0.06 0.05 0.03 0.03 0.03 0.04 0.11 0.18 0.23 0.27 0.30 0.34 0.37 0.49 0.68 0.75 0.76 0.73 0.66 0.59 0.52 0.41 0.33 0.30 0.30 0.30 0.30 0.32 0.32 0.34 0.37 0.37 0.35 0.35 0.35
0.00 0.00 0.01 0.03 0.05 0.06 0.07 0.10 0.15 0.19 0.16 0.09 0.04 0.03 0.06 0.15 0.19 0.23 0.31 0.43 0.44 0.51 0.60 0.62 0.61 0.48 0.40 0.37 0.33 0.27 0.22 0.20 0.22 0.21 0.19 0.20 0.23 0.24 0.25 0.28 0.30 0.32 0.33
0.00 0.01 0.03 0.08 0.10 0.09 0.10 0.14 0.16 0.12 0.10 0.10 0.08 0.06 0.06 0.08 0.11 0.14 0.24 0.42 0.42 0.36 0.32 0.29 0.27 0.25 0.20 0.20 0.19 0.17 0.14 0.12 0.11 0.11 0.09 0.10 0.11 0.14 0.16 0.19 0.23 0.26 0.29
0.01 0.01 0.03 0.08 0.11 0.09 0.09 0.10 0.09 0.07 0.06 0.08 0.09 0.10 0.12 0.13 0.15 0.16 0.19 0.24 0.22 0.17 0.15 0.16 0.16 0.16 0.16 0.16 0.16 0.15 0.13 0.10 0.09 0.09 0.08 0.08 0.09 0.09 0.11 0.15 0.19 0.22 0.24
0.01 0.02 0.03 0.05 0.08 0.07 0.07 0.07 0.07 0.07 0.08 0.09 0.09 0.09 0.13 0.18 0.19 0.19 0.20 0.20 0.19 0.18 0.17 0.18 0.16 0.15 0.16 0.17 0.18 0.18 0.16 0.13 0.11 0.10 0.09 0.09 0.10 0.10 0.12 0.16 0.20 0.23 0.25
0.02 0.03 0.05 0.07 0.07 0.06 0.06 0.09 0.11 0.10 0.09 0.11 0.11 0.12 0.15 0.19 0.20 0.19 0.19 0.19 0.19 0.19 0.21 0.24 0.24 0.22 0.20 0.20 0.20 0.19 0.17 0.16 0.14 0.12 0.11 0.10 0.10 0.10 0.11 0.13 0.17 0.21 0.26
0.03 0.04 0.05 0.08 0.08 0.07 0.08 0.10 0.12 0.12 0.11 0.12 0.14 0.15 0.16 0.20 0.21 0.22 0.22 0.22 0.22 0.24 0.23 0.25 0.27 0.26 0.24 0.22 0.23 0.21 0.19 0.17 0.15 0.15 0.15 0.14 0.13 0.13 0.13 0.12 0.13 0.16 0.20
0.05 0.06 0.07 0.09 0.10 0.09 0.10 0.12 0.13 0.12 0.13 0.14 0.15 0.16 0.18 0.19 0.19 0.19 0.21 0.23 0.25 0.26 0.26 0.26 0.26 0.24 0.23 0.24 0.23 0.22 0.24 0.23 0.18 0.16 0.16 0.17 0.18 0.17 0.18 0.19 0.21 0.23 0.24
0.07 0.07 0.08 0.09 0.09 0.09 0.09 0.11 0.13 0.13 0.14 0.15 0.15 0.15 0.18 0.19 0.19 0.19 0.20 0.21 0.23 0.25 0.25 0.26 0.28 0.26 0.24 0.23 0.23 0.23 0.28 0.29 0.25 0.21 0.18 0.17 0.19 0.21 0.24 0.30 0.34 0.36 0.36
0.07 0.07 0.08 0.09 0.10 0.10 0.11 0.12 0.13 0.14 0.15 0.16 0.16 0.17 0.19 0.20 0.20 0.20 0.20 0.20 0.22 0.22 0.22 0.24 0.26 0.25 0.24 0.24 0.24 0.29 0.31 0.27 0.24 0.23 0.19 0.17 0.17 0.19 0.20 0.21 0.25 0.29 0.32